logo tempoitalia

Diretta Meteo Al Ain, Emirati Arabi Unitilunedì 31 agosto ore 09:30

Mappa
Sereno 37 °C Sereno 24 Ore: T.min 32 T.max 44
Ponente Sud/Sud-Est Km/h 25.9 Punto di rugiada: 17 °C Umidità: 30% Visibilità: 10 Km
Il sole sorge alle: 05:58 Il sole tramonta alle: 18:37
31 Agosto 2026 09:30 tempo osservato: Sereno Sereno 37 30 1005 vento: Nord S/SE 25.9
31 Agosto 2026 09:00 tempo osservato: Sereno Sereno 36 32 1005 vento: Nord S 27.8
31 Agosto 2026 08:30 tempo osservato: Sereno Sereno 35 34 1005 vento: Nord S 24
31 Agosto 2026 08:00 tempo osservato: Sereno Sereno 33 41 1005 vento: Nord S 22.2
31 Agosto 2026 07:30 tempo osservato: Sereno Sereno 33 38 1005 vento: Nord S/SE 16.7
31 Agosto 2026 07:00 tempo osservato: Sereno Sereno 32 40 1005 vento: Nord S/SE 20.3
31 Agosto 2026 06:30 tempo osservato: Sereno Sereno 32 38 1005 vento: Nord S/SE 20.3
31 Agosto 2026 06:00 tempo osservato: Sereno Sereno 33 31 1004 vento: Nord S/SE 18.5
31 Agosto 2026 05:30 tempo osservato: Sereno Sereno 33 29 1004 vento: Nord S/SE 14.8
31 Agosto 2026 05:00 tempo osservato: Sereno Sereno 34 28 1004 vento: Nord S/SE 11.1
31 Agosto 2026 04:30 tempo osservato: Sereno Sereno 34 28 1004 vento: Nord SE 14.8
31 Agosto 2026 04:00 tempo osservato: Sereno Sereno 34 30 1004 vento: Nord SE 16.7
31 Agosto 2026 03:30 tempo osservato: Sereno Sereno 34 28 1004 vento: Nord SE 16.7
31 Agosto 2026 03:00 tempo osservato: Sereno Sereno 34 28 1004 vento: Nord S/SE 16.7
31 Agosto 2026 02:30 tempo osservato: Sereno Sereno 34 26 1004 vento: Nord S/SE 11.1
31 Agosto 2026 02:00 tempo osservato: Sereno Sereno 35 24 1003 vento: Nord S/SE 13
31 Agosto 2026 01:30 tempo osservato: Sereno Sereno 35 30 1003 vento: Nord SE 7.4
31 Agosto 2026 01:00 tempo osservato: Sereno Sereno 36 28 1003 vento: Nord E/SE 9.3
31 Agosto 2026 00:30 tempo osservato: Sereno Sereno 35 30 1003 vento: Nord E/SE 9.3
31 Agosto 2026 00:00 tempo osservato: Sereno Sereno 36 28 1003 vento: Nord E 9.3
30 Agosto 2026 23:30 tempo osservato: Sereno Sereno 36 28 1004 vento: Nord E 9.3
30 Agosto 2026 23:00 tempo osservato: Sereno Sereno 37 28 1004 vento: Nord NE 7.4
30 Agosto 2026 22:30 tempo osservato: Sereno Sereno 37 27 1004 vento: Nord N/NE 9.3
30 Agosto 2026 22:00 tempo osservato: Sereno Sereno 38 27 1004 vento: Nord N/NE 11.1
30 Agosto 2026 21:30 tempo osservato: Sereno Sereno 38 27 1004 vento: Nord N 11.1
30 Agosto 2026 21:00 tempo osservato: Sereno Sereno 39 24 1003 vento: Nord N/NO 11.1
30 Agosto 2026 20:30 tempo osservato: Sereno Sereno 40 20 1003 vento: Nord S/SO 9.3
30 Agosto 2026 20:00 tempo osservato: Sereno Sereno 41 18 1003 vento: Nord S 7.4
30 Agosto 2026 19:30 tempo osservato: Sereno Sereno 41 18 1002 vento: Nord S/SO 9.3
30 Agosto 2026 19:00 tempo osservato: Sereno Sereno 42 17 1002 vento: Nord O/SO 7.4
30 Agosto 2026 18:30 tempo osservato: Sereno Sereno 42 17 1002 vento: Nord O/SO 13
30 Agosto 2026 18:00 tempo osservato: Sereno Sereno 43 16 1002 vento: Nord SO 16.7
30 Agosto 2026 17:30 tempo osservato: Sereno Sereno 43 16 1002 vento: Nord O/SO 14.8
30 Agosto 2026 17:00 tempo osservato: Sereno Sereno 44 15 1002 vento: Nord O/SO 18.5
30 Agosto 2026 16:30 tempo osservato: Sereno Sereno 43 17 1002 vento: Nord O 9.3
30 Agosto 2026 16:00 tempo osservato: Sereno Sereno 43 16 1002 vento: Nord SO 16.7
30 Agosto 2026 15:30 tempo osservato: Sereno Sereno 43 17 1003 vento: Nord SO 14.8
30 Agosto 2026 15:00 tempo osservato: Sereno Sereno 42 19 1003 vento: Nord SO 16.7
30 Agosto 2026 14:30 tempo osservato: Sereno Sereno 43 19 1003 vento: Nord SO 14.8
30 Agosto 2026 14:00 tempo osservato: Sereno Sereno 42 19 1003 vento: Nord S/SO 18.5
30 Agosto 2026 13:30 tempo osservato: Sereno Sereno 42 20 1004 vento: Nord S/SO 22.2
30 Agosto 2026 13:00 tempo osservato: Sereno Sereno 41 21 1004 vento: Nord S 24
30 Agosto 2026 12:30 tempo osservato: Sereno Sereno 41 21 1005 vento: Nord S/SO 24
30 Agosto 2026 12:00 tempo osservato: Sereno Sereno 40 24 1005 vento: Nord S 27.8
30 Agosto 2026 11:30 tempo osservato: Sereno Sereno 40 24 1005 vento: Nord S 27.8
30 Agosto 2026 11:00 tempo osservato: Sereno Sereno 39 26 1005 vento: Nord S 27.8
30 Agosto 2026 10:30 tempo osservato: Sereno Sereno 38 29 1006 vento: Nord S 29.6
30 Agosto 2026 10:00 tempo osservato: Sereno Sereno 37 30 1006 vento: Nord S 29.6